• în Republica Moldova
  • Lista ţărilor
  • Pe 7 zile
  • Temperatura apei
  • Hartă satelitară
  • Meteo pe hartă
  • Widget-uri
  • user-avatar
    Intrare

    Meteo pe oră la Luni

    Astăzi, 18 Septembrie, Marţi

    Timp Temperatura Precipitaţii Vânt Presiune Umiditate
    00:00 +12°C° 0.1 mm 4 m/s 738 mmHg 82%
    01:00 +12°C° 0.1 mm 4 m/s 738 mmHg 85%
    02:00 +12°C° 0 mm 3 m/s 738 mmHg 90%
    03:00 +12°C° 0.1 mm 3 m/s 738 mmHg 91%
    04:00 +12°C° 0.1 mm 4 m/s 738 mmHg 92%
    05:00 +11°C° 0.1 mm 4 m/s 738 mmHg 94%
    06:00 +12°C° 0 mm 4 m/s 738 mmHg 92%
    07:00 +12°C° 0 mm 4 m/s 739 mmHg 90%
    08:00 +11°C° 0 mm 4 m/s 739 mmHg 87%
    09:00 +12°C° 0 mm 4 m/s 739 mmHg 83%
    10:00 +12°C° 0 mm 4 m/s 740 mmHg 79%
    11:00 +13°C° 0 mm 5 m/s 740 mmHg 76%
    12:00 +13°C° 0 mm 4 m/s 740 mmHg 71%
    13:00 +14°C° 0 mm 4 m/s 740 mmHg 66%
    14:00 +16°C° 0 mm 3 m/s 740 mmHg 61%
    15:00 +16°C° 0 mm 3 m/s 740 mmHg 65%
    16:00 +15°C° 0 mm 2 m/s 741 mmHg 69%
    17:00 +15°C° 0 mm 2 m/s 741 mmHg 72%
    18:00 +13°C° 0 mm 2 m/s 741 mmHg 78%
    19:00 +12°C° 0 mm 2 m/s 741 mmHg 83%
    20:00 +10°C° 0 mm 2 m/s 741 mmHg 89%
    21:00 +9°C° 0 mm 2 m/s 741 mmHg 90%
    22:00 +9°C° 0 mm 2 m/s 741 mmHg 92%
    23:00 +9°C° 0 mm 2 m/s 741 mmHg 93%

    Mâine, 19 Septembrie, Miercuri

    Timp Temperatura Precipitaţii Vânt Presiune Umiditate
    00:00 +9°C° 0 mm 2 m/s 741 mmHg 93%
    01:00 +9°C° 0 mm 2 m/s 741 mmHg 93%
    02:00 +9°C° 0 mm 2 m/s 741 mmHg 93%
    03:00 +9°C° 0 mm 2 m/s 741 mmHg 93%
    04:00 +10°C° 0 mm 3 m/s 741 mmHg 94%
    05:00 +10°C° 0 mm 3 m/s 741 mmHg 95%
    06:00 +11°C° 0 mm 3 m/s 740 mmHg 91%
    07:00 +13°C° 0 mm 3 m/s 740 mmHg 87%
    08:00 +14°C° 0 mm 4 m/s 740 mmHg 83%
    09:00 +17°C° 0 mm 4 m/s 740 mmHg 75%
    10:00 +19°C° 0 mm 4 m/s 740 mmHg 67%
    11:00 +21°C° 0 mm 4 m/s 740 mmHg 59%
    12:00 +22°C° 0 mm 4 m/s 740 mmHg 57%
    13:00 +22°C° 0 mm 4 m/s 740 mmHg 55%
    14:00 +23°C° 0 mm 4 m/s 740 mmHg 53%
    15:00 +22°C° 0 mm 4 m/s 740 mmHg 59%
    16:00 +21°C° 0 mm 3 m/s 739 mmHg 66%
    17:00 +20°C° 0 mm 2 m/s 739 mmHg 73%
    18:00 +18°C° 0 mm 2 m/s 739 mmHg 79%
    19:00 +17°C° 0 mm 2 m/s 739 mmHg 85%
    20:00 +16°C° 0 mm 3 m/s 739 mmHg 92%
    21:00 +16°C° 0 mm 2 m/s 739 mmHg 93%
    22:00 +15°C° 0 mm 2 m/s 739 mmHg 94%
    23:00 +15°C° 0 mm 2 m/s 739 mmHg 96%

    Poimâine, 20 Septembrie, Joi

    Timp Temperatura Precipitaţii Vânt Presiune Umiditate
    00:00 +15°C° 0 mm 2 m/s 739 mmHg 96%
    01:00 +15°C° 0 mm 2 m/s 740 mmHg 97%
    02:00 +14°C° 0 mm 3 m/s 740 mmHg 97%
    03:00 +15°C° 0 mm 2 m/s 740 mmHg 98%
    04:00 +15°C° 0 mm 2 m/s 740 mmHg 98%
    05:00 +14°C° 0 mm 2 m/s 740 mmHg 98%
    06:00 +14°C° 0 mm 3 m/s 740 mmHg 96%
    07:00 +14°C° 0 mm 3 m/s 741 mmHg 93%
    08:00 +16°C° 0 mm 3 m/s 741 mmHg 90%
    09:00 +17°C° 0 mm 3 m/s 741 mmHg 82%
    10:00 +18°C° 0 mm 3 m/s 741 mmHg 74%
    11:00 +20°C° 0 mm 3 m/s 742 mmHg 66%
    12:00 +21°C° 0 mm 3 m/s 742 mmHg 63%
    13:00 +22°C° 0 mm 3 m/s 742 mmHg 60%
    14:00 +22°C° 0 mm 3 m/s 742 mmHg 57%
    15:00 +21°C° 0 mm 2 m/s 742 mmHg 63%
    16:00 +20°C° 0 mm 2 m/s 742 mmHg 69%
    17:00 +20°C° 0 mm 1 m/s 742 mmHg 75%
    18:00 +19°C° 0 mm 1 m/s 742 mmHg 81%
    19:00 +16°C° 0 mm 1 m/s 742 mmHg 86%
    20:00 +15°C° 0 mm 1 m/s 742 mmHg 92%
    21:00 +15°C° 0 mm 1 m/s 742 mmHg 93%
    22:00 +14°C° 0 mm 1 m/s 742 mmHg 94%
    23:00 +14°C° 0 mm 1 m/s 742 mmHg 95%

    21 Septembrie, Vineri

    Timp Temperatura Precipitaţii Vânt Presiune Umiditate
    00:00 +14°C° 0 mm 1 m/s 742 mmHg 95%
    01:00 +14°C° 0 mm 1 m/s 742 mmHg 95%
    02:00 +13°C° 0 mm 1 m/s 742 mmHg 95%
    03:00 +13°C° 0 mm 1 m/s 742 mmHg 95%
    04:00 +13°C° 0 mm 1 m/s 742 mmHg 95%
    05:00 +13°C° 0 mm 1 m/s 742 mmHg 96%
    06:00 +14°C° 0 mm 2 m/s 743 mmHg 91%
    07:00 +16°C° 0 mm 2 m/s 743 mmHg 87%
    08:00 +17°C° 0 mm 2 m/s 743 mmHg 82%
    09:00 +19°C° 0 mm 2 m/s 743 mmHg 76%
    10:00 +21°C° 0 mm 2 m/s 743 mmHg 70%
    11:00 +24°C° 0 mm 2 m/s 743 mmHg 64%
    12:00 +24°C° 0 mm 2 m/s 743 mmHg 63%
    13:00 +25°C° 0 mm 2 m/s 743 mmHg 61%
    14:00 +26°C° 0 mm 2 m/s 743 mmHg 59%
    15:00 +24°C° 0.1 mm 2 m/s 743 mmHg 65%
    16:00 +23°C° 0.1 mm 2 m/s 742 mmHg 72%
    17:00 +21°C° 0.1 mm 2 m/s 742 mmHg 78%
    18:00 +20°C° 0 mm 2 m/s 742 mmHg 83%
    19:00 +18°C° 0 mm 2 m/s 742 mmHg 87%
    20:00 +17°C° 0 mm 2 m/s 742 mmHg 92%
    21:00 +17°C° 0 mm 2 m/s 742 mmHg 93%
    22:00 +16°C° 0 mm 2 m/s 742 mmHg 94%
    23:00 +16°C° 0 mm 2 m/s 742 mmHg 96%

    22 Septembrie, Sâmbătă

    Timp Temperatura Precipitaţii Vânt Presiune Umiditate
    00:00 +16°C° 0 mm 2 m/s 741 mmHg 96%
    01:00 +16°C° 0 mm 2 m/s 741 mmHg 96%
    02:00 +16°C° 0 mm 2 m/s 741 mmHg 96%
    03:00 +16°C° 0 mm 3 m/s 741 mmHg 96%
    04:00 +14°C° 0 mm 3 m/s 740 mmHg 95%
    05:00 +14°C° 0 mm 3 m/s 740 mmHg 95%
    06:00 +15°C° 0 mm 4 m/s 740 mmHg 90%
    07:00 +17°C° 0 mm 4 m/s 740 mmHg 84%
    08:00 +18°C° 0 mm 4 m/s 739 mmHg 79%
    09:00 +20°C° 0 mm 5 m/s 739 mmHg 71%
    10:00 +21°C° 0 mm 5 m/s 739 mmHg 64%
    11:00 +23°C° 0 mm 6 m/s 738 mmHg 57%
    12:00 +23°C° 0 mm 6 m/s 738 mmHg 55%
    13:00 +24°C° 0 mm 6 m/s 737 mmHg 53%
    14:00 +24°C° 0 mm 6 m/s 737 mmHg 50%
    15:00 +23°C° 0 mm 5 m/s 736 mmHg 56%
    16:00 +22°C° 0 mm 4 m/s 736 mmHg 61%
    17:00 +21°C° 0 mm 4 m/s 736 mmHg 66%
    18:00 +20°C° 0.2 mm 4 m/s 736 mmHg 70%
    19:00 +19°C° 0.2 mm 4 m/s 736 mmHg 73%
    20:00 +18°C° 0.2 mm 4 m/s 736 mmHg 77%
    21:00 +17°C° 0.3 mm 3 m/s 736 mmHg 82%
    22:00 +16°C° 0.3 mm 3 m/s 735 mmHg 86%
    23:00 +15°C° 0.3 mm 2 m/s 735 mmHg 90%

    23 Septembrie, Duminică

    Timp Temperatura Precipitaţii Vânt Presiune Umiditate
    00:00 +14°C° 0.4 mm 2 m/s 735 mmHg 92%
    01:00 +14°C° 0.4 mm 2 m/s 735 mmHg 93%
    02:00 +13°C° 0.4 mm 2 m/s 735 mmHg 94%
    03:00 +12°C° 0.2 mm 2 m/s 735 mmHg 94%
    04:00 +11°C° 0.2 mm 3 m/s 735 mmHg 93%
    05:00 +10°C° 0.2 mm 3 m/s 735 mmHg 93%
    06:00 +10°C° 0.6 mm 3 m/s 735 mmHg 93%
    07:00 +9°C° 0.6 mm 3 m/s 735 mmHg 93%
    08:00 +9°C° 0.6 mm 3 m/s 735 mmHg 93%
    09:00 +8°C° 1.3 mm 3 m/s 735 mmHg 93%
    10:00 +8°C° 1.3 mm 3 m/s 735 mmHg 94%
    11:00 +8°C° 1.3 mm 3 m/s 735 mmHg 94%
    12:00 +8°C° 0.7 mm 3 m/s 736 mmHg 93%
    13:00 +9°C° 0.7 mm 2 m/s 736 mmHg 92%
    14:00 +9°C° 0.7 mm 2 m/s 736 mmHg 92%
    15:00 +9°C° 0.1 mm 2 m/s 736 mmHg 91%
    16:00 +10°C° 0.1 mm 2 m/s 737 mmHg 91%
    17:00 +11°C° 0.1 mm 1 m/s 737 mmHg 91%
    18:00 +10°C° 0 mm 1 m/s 737 mmHg 93%
    19:00 +9°C° 0 mm 1 m/s 737 mmHg 94%
    20:00 +9°C° 0 mm 1 m/s 737 mmHg 96%
    21:00 +8°C° 0 mm 1 m/s 738 mmHg 96%
    22:00 +8°C° 0 mm 1 m/s 738 mmHg 96%
    23:00 +8°C° 0 mm 1 m/s 738 mmHg 96%
    Arată mai mult